Flag for Poland Weather past 2 weeks in Płock, Poland

Now
76 °F

Mild.


Feels Like: 78 °F
Forecast: 54 / 80 °F
Wind: 2 mph from North

Location: Plock

Current Time: Jul 1, 2015 at 3:37:05 PM

Latest Report: Jul 1, 2015 at 3:00 PM


Visibility: 22 mi

Pressure: 30.22 "Hg

Humidity: 39%

Dew point: 49 °F

Location of PłockLocation

Historic Weather in Płock — Graph

°F

Płock temperature yesterday

Maximum temperature yesterday: 77 °F (at 3:00 PM)
Minimum temperature yesterday: 48 °F (at 5:00 AM)
Average temperature yesterday: 63 °F

Past Weeks' High & Low Weather Summary

 TemperatureHumidityPressure
High77 °F (Jun 30, 3:00 PM)97% (Jun 22, 5:00 AM)30.25 "Hg (Jun 22, 5:00 AM)
Low47 °F (Jun 25, 5:00 AM)32% (Jun 17, 4:00 PM)29.68 "Hg (Jun 23, 4:00 AM)
Average60 °F71%30.01 "Hg
* Reported Jun 16 2:00 PM — Jul 1 2:00 PM, Płock, Weather by CustomWeather, © 2015

Note: Actual official high and low records may vary slightly from our data, if they occured in-between our weather recording intervals... More about our weather records

Advertising

Płock weather history for previous 24 hours

 ConditionsComfort  
Time TempWeatherWind HumidityBarometerVisibility
2:00 PM
Wed, Jul 1
74 °FMild.2 mph40%30.22 "Hg19 mi
1:00 PM72 °FMild.2 mph43%30.24 "Hg19 mi
12:00 PM70 °FMild.3 mph49%30.25 "Hg19 mi
11:00 AM68 °FMild.3 mph54%30.25 "Hg16 mi
10:00 AM68 °FMild.3 mph55%30.24 "Hg22 mi
9:00 AM65 °FMild.3 mph60%30.24 "Hg18 mi
8:00 AM63 °FMild.5 mph69%30.24 "Hg18 mi
7:00 AM60 °FCool.3 mph75%30.23 "Hg18 mi
6:00 AM55 °FCool.2 mph83%30.22 "Hg16 mi
4:00 AM50 °FCool.2 mph89%30.21 "Hg16 mi
3:00 AM52 °FCool.2 mph85%30.20 "Hg11 mi
2:00 AM55 °FCool.2 mph85%30.19 "Hg16 mi
1:00 AM56 °FCool.2 mph90%30.19 "Hg9 mi
12:00 AM59 °FCool.2 mph90%30.18 "Hg7 mi
11:00 PM
Tue, Jun 30
61 °FCool.2 mph85%30.17 "Hg11 mi
10:00 PM63 °FMild.3 mph80%30.15 "Hg17 mi
9:00 PM66 °FMild.2 mph76%30.13 "Hg12 mi
8:00 PM69 °FMild.1 mph67%30.11 "Hg18 mi
6:00 PM71 °FMild.1 mph64%30.10 "Hg19 mi
4:00 PM76 °FMild.3 mph44%30.09 "Hg25 mi
3:00 PM77 °FWarm.2 mph44%30.10 "Hg22 mi
Weather by CustomWeather, © 2015

See weather overviewHow to use our weather pages